Regional Weather Roundup
Issued by NWS Newport/Morehead, NC

Current Version | Previous Version | Graphics & Text | Print | Product List | Glossary Off
Versions: 1 2 3 4 5 6 7 8 9 10 11 12 13 14 15 16 17 18 19 20 21 22 23 24 25 26 27 28 29 30 31 32 33 34 35 36 37 38 39 40 41 42 43 44 45 46 47 48 49 50

000
ASUS42 KMHX 210010
RWRMHX
WEATHER ROUNDUP FOR EASTERN NORTH CAROLINA
NATIONAL WEATHER SERVICE NEWPORT/MOREHEAD CITY NC
800 PM EDT SAT SEP 20 2014

NOTE: "FAIR" INDICATES FEW OR NO CLOUDS BELOW 12,000 FEET
WITH NO SIGNIFICANT WEATHER AND/OR OBSTRUCTIONS TO VISIBILITY

NCZ015>017-031-032-045>047-102-103-210100-
NORTH COAST

CITY           SKY/WX    TMP DP  RH WIND       PRES   REMARKS
EDENTON        CLOUDY    71  68  91 NE6       30.02S
ELIZABETH CITY CLOUDY    71  68  90 NE10      30.02F
KITTY HAWK     CLOUDY    73  71  93 NE7       29.99S FOG
MANTEO         CLOUDY    72  71  96 NE9       30.00F

$$

NCZ045>047-081-094-103-104-210100-
CENTRAL COAST

CITY           SKY/WX    TMP DP  RH WIND       PRES   REMARKS
FRISCO         CLOUDY    72  71  97 E8        29.97F
SWANQUARTER      N/A     72 N/A N/A E1        29.97S

$$

NCZ095-097-098-100-101-210100-
SOUTHERN COAST

CITY           SKY/WX    TMP DP  RH WIND       PRES   REMARKS
BEAUFORT       LGT RAIN  72  70  93 NE10      29.95F
CEDAR ISLAND     N/A     72 N/A N/A N17G23    30.00F
JACKSONVILLE   LGT RAIN  72  69  90 NE12      29.95F
NEWPORT        NOT AVBL
PINEY ISLAND   LGT RAIN  73  70  90 NE15G23   29.97S
WILMINGTON     LGT RAIN  72  70  93 N9        29.94F


$$

NCZ011>013-027>030-043-044-078>080-089-090>093-098-210100-
COASTAL PLAIN

CITY           SKY/WX    TMP DP  RH WIND       PRES   REMARKS
AHOSKIE        CLOUDY    70  65  84 NE5       30.04S
CLINTON        CLOUDY    74  67  80 N7        29.99S
ELIZABETHTOWN  CLOUDY    73  65  77 CALM      29.97F
GOLDSBORO      CLOUDY    73  70  91 NE1       29.98F
GREENVILLE     CLOUDY    72  68  88 NE6       30.03S
HAVELOCK       LGT RAIN  72  69  90 NE17      29.98F
KENANSVILLE    CLOUDY    73  66  79 NE5       29.99F
KINSTON        CLOUDY    72  68  88 N8        30.01S
NEW BERN       LGT RAIN  73  68  84 NE8       30.00S
RICHLANDS      CLOUDY    72  66  83 N12       29.98S
ROANOKE RAPIDS NOT AVBL
ROCKY MOUNT    CLOUDY    71  66  84 NE6       30.02F
WASHINGTON     CLOUDY    71  65  83 NE7       30.02R
WHITEVILLE     CLOUDY    73  65  78 NE3       29.95F

$$

AMZ130-135-150-152-154-156-158-170-250-252-270-ANZ085-086-088-633-658-670-210100-
MARINE OBSERVATIONS

STATION/POSITION TIME  TEMP    WIND        PRES    WAVE   SWELL
                       AIR SEA DIR/SP/G            HT/PER HT/PER
                 (UTC) (F)     (DEG/KT/KT) (MB)    (FT/S) (FT/S)
CHESAPEAKE LIGHT 2300   72      60/ 18/ 19 1017.6
BUOY 44014       0000   76 77   50/ 12/ 14 1016.1    7/10   7/10
DUCK             0000   73 74   50/ 17/ 19 1015.5
2E DUCK          0000                        N/A     6/ 9   2/11
OREGON INLET     0000   74 73   30/  8/ 11 1015.4
BUOY 44095       0000      74                N/A     7/11   3/11
20E OREGON INLET NOT AVBL
HATTERAS CG      0000   74 73   90/  3/  5 1015.3
DIAMOND BUOY     0000   76     100/ 17/ 21 1014.1    8/ 9   3/ 9
CAPE LOOKOUT     2300   72      20/ 13/ 16 1014.2
BEAUFORT LAB     0000   72 76   30/  7/ 13 1013.7
30 SE NEW RIVER  2300   76 83   40/ 21/ 23 1013.1
5 SE WRIGHTSVILL 2300   71 80   30/ 23/ 27   N/A
BUOY 41002       NOT AVBL
BUOY 41004       0000   75 82   30/ 27/ 33 1010.7    8/ 8   3/ 8

$$



USA.gov is the U.S. government's official web portal to all federal, state and local government web resources and services.